Weather History for KPWK - December, 2011

Change the Weather History Date:

Wednesday, December 14, 2011

  Actual Average Record
Temperature  
Mean Temperature 48 °F 28 °F  
Max Temperature 55 °F 35 °F 56 °F (2011)
Min Temperature 42 °F 21 °F 5 °F (2010)
Degree Days  
Heating Degree Days 16 37  
Month to date heating degree days 486  
Since 1 July heating degree days 1756  
Cooling Degree Days 0 0  
Month to date cooling degree days 0  
Year to date cooling degree days 789  
Moisture  
Dew Point 45 °F    
Average Humidity 89    
Maximum Humidity 94    
Minimum Humidity 86    
Precipitation  
Precipitation 0.89 in 0.05 in 0.89 in (2011)
Month to date precipitation 0.94  
Year to date precipitation 32.46  
Sea Level Pressure  
Sea Level Pressure 29.97 in    
Wind  
Wind Speed 9 mph (South)    
Max Wind Speed 17 mph    
Max Gust Speed 28 mph    
Visibility 5 miles    
Events Rain    
T = Trace of Precipitation, MM = Missing Value Source: NWS Daily Summary

Daily Weather History Graph

Daily Weather History Graph

Search for Another Location

Airport or City:

Trip Planner

Search our weather history database for the weather conditions in past years. The results will help you decide how hot, cold, wet, or windy it might be!

Date:

Astronomy

Dec. 14, 2011 Rise Set
Actual Time 7:12 AM CST 4:20 PM CST
Civil Twilight 6:40 AM CST 4:52 PM CST
Nautical Twilight 6:05 AM CST 5:27 PM CST
Astronomical Twilight 5:31 AM CST 6:01 PM CST
Moon 8:43 PM CST (12/14) 9:53 AM CST (12/14)
Length of Visible Light 10h 11m
Length of Day
9h 08m
Waning Gibbous, 83% of the Moon is Illuminated
Dec 14
Waning Gibbous
Dec 17
Last Quarter
Dec 24
New
Jan 1
First Quarter
Jan 9
Full

Hourly Weather History & Observations

Time (CST) Temp. Windchill Dew Point Humidity Pressure Visibility Wind Dir Wind Speed Gust Speed Precip Events Conditions
12:52 AM 42.1 °F 37.1 °F 39.0 °F 89% 30.22 in 5.0 mi SSE 8.1 mph - 0.00 in Rain Light Rain
1:52 AM 42.1 °F 37.7 °F 39.0 °F 89% 30.20 in 4.0 mi SSE 6.9 mph - 0.01 in Rain Light Rain
2:52 AM 42.1 °F 39.2 °F 39.9 °F 92% 30.19 in 7.0 mi SSE 4.6 mph - 0.02 in Rain Light Rain
3:52 AM 43.0 °F 38.8 °F 39.9 °F 89% 30.16 in 4.0 mi SE 6.9 mph - 0.02 in Rain Rain
4:08 AM 42.8 °F 39.3 °F 39.2 °F 87% 30.14 in 4.0 mi SSE 5.8 mph - 0.05 in Rain Heavy Rain
4:14 AM 42.8 °F 41.1 °F 41.0 °F 93% 30.15 in 4.0 mi South 3.5 mph - 0.07 in Rain Rain
4:52 AM 43.0 °F 41.3 °F 41.0 °F 93% 30.12 in 5.0 mi ESE 3.5 mph - 0.14 in Rain Light Rain
5:52 AM 44.1 °F - 41.0 °F 89% 30.16 in 2.0 mi Calm Calm - 0.08 in Rain Rain
6:02 AM 42.8 °F 41.1 °F 41.0 °F 93% 30.12 in 3.0 mi East 3.5 mph - 0.02 in Rain Rain
6:20 AM 44.6 °F - 41.0 °F 87% 30.12 in 4.0 mi Calm Calm - 0.05 in Rain Light Rain
6:31 AM 42.8 °F 39.3 °F 41.0 °F 93% 30.11 in 2.0 mi SE 5.8 mph - 0.06 in Rain Rain
6:52 AM 44.1 °F 39.0 °F 41.0 °F 89% 30.08 in 2.0 mi ESE 9.2 mph - 0.08 in Rain Light Rain
7:52 AM 46.0 °F 40.2 °F 43.0 °F 89% 30.04 in 5.0 mi South 12.7 mph - 0.04 in Rain Light Rain
8:35 AM 46.4 °F 41.5 °F 42.8 °F 87% 30.01 in 2.0 mi South 10.4 mph - 0.13 in Rain Heavy Rain
8:52 AM 46.0 °F 40.2 °F 43.0 °F 89% 30.04 in 3.0 mi South 12.7 mph - 0.18 in Rain Rain
9:14 AM 46.4 °F 44.3 °F 42.8 °F 87% 30.05 in 2.5 mi WSW 4.6 mph - 0.06 in Rain Rain
9:44 AM 46.4 °F 42.9 °F 44.6 °F 93% 30.01 in 5.0 mi South 6.9 mph - 0.16 in Rain Light Rain
9:52 AM 46.9 °F - 44.1 °F 90% 30.02 in 7.0 mi South 9.2 mph - 0.16 in Rain Light Rain
10:52 AM 48.9 °F - 45.0 °F 86% 30.00 in 5.0 mi SSW 11.5 mph - 0.00 in Rain Light Rain
11:52 AM 50.0 °F - 46.0 °F 86% 29.94 in 8.0 mi SSW 16.1 mph - 0.00 in   Overcast
12:52 PM 50.0 °F - 46.9 °F 89% 29.91 in 10.0 mi SSW 11.5 mph - 0.00 in   Overcast
1:52 PM 51.1 °F - 46.9 °F 86% 29.89 in 10.0 mi SSW 13.8 mph - 0.00 in   Overcast
2:52 PM 52.0 °F - 48.0 °F 86% 29.87 in 10.0 mi SSW 12.7 mph - 0.00 in   Overcast
3:52 PM 52.0 °F - 48.0 °F 86% 29.84 in 8.0 mi SSW 16.1 mph - 0.00 in Rain Light Rain
4:52 PM 52.0 °F - 48.9 °F 89% 29.82 in 6.0 mi South 15.0 mph - 0.11 in Rain Light Rain
5:52 PM 54.0 °F - 50.0 °F 86% 29.81 in 10.0 mi SSW 17.3 mph - 0.02 in Rain Light Rain
6:52 PM 54.0 °F - 50.0 °F 86% 29.79 in 8.0 mi SSW 16.1 mph 24.2 mph 0.03 in Rain Light Rain
7:52 PM 54.0 °F - 51.1 °F 90% 29.76 in 4.0 mi SSW 13.8 mph 23.0 mph 0.00 in   Overcast
8:52 PM 55.0 °F - 51.1 °F 86% 29.73 in 4.0 mi SSW 16.1 mph 27.6 mph 0.00 in Rain Light Rain
9:52 PM 55.0 °F - 52.0 °F 89% 29.71 in 6.0 mi SSW 17.3 mph 25.3 mph 0.00 in   Overcast
10:52 PM 55.9 °F - 53.1 °F 90% 29.69 in 6.0 mi SSW 15.0 mph 25.3 mph N/A   Overcast
11:52 PM 55.9 °F - 53.1 °F 90% 29.68 in 3.0 mi SSW 13.8 mph - 0.00 in Rain Light Rain
11:59 PM 55.4 °F - 53.6 °F 94% 29.67 in 2.5 mi SSW 15.0 mph 20.7 mph 0.00 in Rain Light Rain